sat.trackr.live / text

‹ back to catalog

STARLINK-30993

NORAD 58489 · 2023-186S

PAYLOAD ACTIVE UNKNOWN

§ Identity

Operator
Country
US
Launch date
2023-12-03
Launch site
AFETR
Launch vehicle
Mass (kg)
RCS (m²)

Purposes: comms

External: N2YO · Heavens-Above · Gunter

§ Orbital elements

Epoch: 2026-05-24T20:27:42.264000Z

Period
94.27 min
Inclination
43.0041°
Eccentricity
0.0002025
Mean motion
15.27575243 rev/d
Perigee alt
481.7 km
Apogee alt
484.5 km
Semi-major
6,861.2 km
B*
1.8588e-5
RAAN
353.5812°
Arg perigee
274.7901°
Mean anomaly
85.2720°
Rev number
13,753

§ Raw data

STARLINK-309931 58489U 23186S   26144.85257250  .00000249  00000+0  18588-4 0  99932 58489  43.0041 353.5812 0002025 274.7901  85.2720 15.27575243137538

JSON: /api/v1/satellites/58489 · /tle

For live sub-satellite position, see the globe view (requires WebGL).

§ Visibility from observer

Set your observer location to see the next 7 days of passes ≥ 10°. The values pass through the URL so the page stays shareable.

No JS? Fill the form by hand. The geolocation button needs JavaScript.